User: anonymous   Login
Location: Unspecified
(44.4377°N, 88.0525°W)
Time: 17:27:55
(UTC-05:00)
Language:

Okean 3 - Orbit

View from above orbital plane
View from above orbital plane
View from above satellite
View from above satellite

Ground track
Ground track

The orbit data is extracted from the following two-line orbital elements,

1 21397U 91039A   18261.93556196 +.00000196 +00000-0 +16433-4 0  9993
2 21397 082.5204 062.5698 0018910 139.3843 220.8792 14.92708650457155
Epoch (UTC): 18 September 2018 22:27:12
Eccentricity: 0.0018910
inclination: 82.5204°
perigee height: 576 km
apogee height: 602 km
right ascension of ascending node: 62.5698°
argument of perigee: 139.3843°
revolutions per day: 14.92708650
mean anomaly at epoch: 220.8792°
orbit number at epoch: 45715

The dashed part of the orbit path shows where the satellite is in the earth's shadow,  

DLR